{"data":{"norad_id":67556,"intl_designator":"2026-015A","name":"MR-2","alt_names":[],"object_type":"PAYLOAD","status":"ACTIVE","operator":null,"country":"SPN","launch_date":"2026-01-22","launch_site_code":"RLLB","launch_vehicle":null,"mission":null,"orbit_class":"UNKNOWN","rcs_meters":null,"size_class":null,"mass_kg":null,"dimensions":null,"purposes":[],"wikipedia_slug":null,"has_3d_model":false,"image_url":null,"decayed_at":null,"tle_current":{"epoch":"2026-09-20T16:46:40.486944Z","epoch_age_seconds":76235,"freshness":"FRESH","line1":"1 67556U 26015A   26263.69907971  .00000051  00000+0  57980-4 0  9998","line2":"2 67556  88.9946 258.8430 0004322 136.1788 223.9708 13.52700802 32622","mean_motion":13.52700802,"eccentricity":0.0004322,"inclination_deg":88.9946,"raan_deg":258.843,"arg_perigee_deg":136.1788,"mean_anomaly_deg":223.9708,"bstar":5.798e-5,"rev_number":3262,"period_min":106.45369603322,"perigee_km":1059.1224753305,"apogee_km":1065.5540221355,"semimajor_km":7440.475248733,"source":"CELESTRAK","updated_at":"2026-09-21T09:00:16.719748Z"}}}